When you browse on this site, cookies collect data to enhance your experience and personalize the content and advertising you see.
Visit our Privacy Policy to learn more. By continuing to use the site, you agree to this use of cookies and data.

Hourly Weather Uige

Today, 25 September, Friday

Time Temperature Precipitation Wind Pressure Humidity
00:00 +22°C° 0 mm 1 mps 692 mmHg 94%
01:00 +22°C° 0 mm 1 mps 692 mmHg 96%
02:00 +22°C° 0 mm 1 mps 692 mmHg 95%
03:00 +22°C° 0 mm 1 mps 692 mmHg 94%
04:00 +22°C° 0 mm 1 mps 691 mmHg 94%
05:00 +22°C° 0 mm 1 mps 692 mmHg 93%
06:00 +22°C° 0 mm 1 mps 692 mmHg 93%
07:00 +22°C° 0 mm 1 mps 693 mmHg 93%
08:00 +23°C° 0.2 mm 1 mps 693 mmHg 86%
09:00 +25°C° 0.2 mm 1 mps 693 mmHg 80%
10:00 +26°C° 0.2 mm 1 mps 694 mmHg 73%
11:00 +26°C° 0.2 mm 1 mps 693 mmHg 73%
12:00 +27°C° 0.2 mm 2 mps 692 mmHg 72%
13:00 +27°C° 0.2 mm 2 mps 691 mmHg 71%
14:00 +27°C° 0.5 mm 2 mps 690 mmHg 70%
15:00 +27°C° 0.5 mm 2 mps 690 mmHg 70%
16:00 +27°C° 0.5 mm 2 mps 689 mmHg 69%
17:00 +26°C° 0.6 mm 2 mps 690 mmHg 75%
18:00 +25°C° 0.6 mm 1 mps 690 mmHg 80%
19:00 +24°C° 0.6 mm 1 mps 691 mmHg 86%
20:00 +23°C° 0 mm 1 mps 691 mmHg 87%
21:00 +23°C° 0 mm 1 mps 691 mmHg 88%
22:00 +22°C° 0 mm 1 mps 692 mmHg 89%
23:00 +22°C° 0 mm 1 mps 692 mmHg 90%

Tomorrow, 26 September, Saturday

Time Temperature Precipitation Wind Pressure Humidity
00:00 +22°C° 0 mm 1 mps 691 mmHg 92%
01:00 +22°C° 0 mm 1 mps 691 mmHg 93%
02:00 +21°C° 0 mm 1 mps 691 mmHg 93%
03:00 +21°C° 0 mm 1 mps 691 mmHg 93%
04:00 +21°C° 0 mm 1 mps 690 mmHg 93%
05:00 +21°C° 0.1 mm 1 mps 691 mmHg 93%
06:00 +21°C° 0.1 mm 1 mps 691 mmHg 92%
07:00 +21°C° 0.1 mm 1 mps 692 mmHg 92%
08:00 +23°C° 0 mm 1 mps 692 mmHg 85%
09:00 +24°C° 0 mm 1 mps 692 mmHg 78%
10:00 +26°C° 0 mm 1 mps 692 mmHg 71%
11:00 +28°C° 0 mm 1 mps 692 mmHg 64%
12:00 +30°C° 0 mm 1 mps 691 mmHg 56%
13:00 +32°C° 0 mm 1 mps 690 mmHg 49%
14:00 +31°C° 0.1 mm 2 mps 690 mmHg 50%
15:00 +31°C° 0.1 mm 2 mps 689 mmHg 50%
16:00 +30°C° 0.1 mm 2 mps 689 mmHg 51%
17:00 +29°C° 0.2 mm 2 mps 689 mmHg 57%
18:00 +27°C° 0.2 mm 2 mps 689 mmHg 62%
19:00 +26°C° 0.2 mm 2 mps 690 mmHg 68%
20:00 +25°C° 0 mm 2 mps 690 mmHg 72%
21:00 +24°C° 0 mm 1 mps 690 mmHg 76%
22:00 +23°C° 0 mm 1 mps 690 mmHg 79%
23:00 +22°C° 0 mm 1 mps 690 mmHg 82%

Day after tomorrow, 27 September, Sunday

Time Temperature Precipitation Wind Pressure Humidity
00:00 +22°C° 0 mm 1 mps 690 mmHg 85%
01:00 +20°C° 0 mm 2 mps 690 mmHg 88%
02:00 +20°C° 0 mm 2 mps 690 mmHg 88%
03:00 +20°C° 0 mm 2 mps 690 mmHg 88%
04:00 +20°C° 0 mm 2 mps 689 mmHg 88%
05:00 +20°C° 0 mm 2 mps 690 mmHg 87%
06:00 +20°C° 0 mm 2 mps 690 mmHg 86%
07:00 +21°C° 0 mm 1 mps 691 mmHg 85%
08:00 +21°C° 0 mm 2 mps 691 mmHg 80%
09:00 +23°C° 0 mm 2 mps 691 mmHg 75%
10:00 +24°C° 0 mm 2 mps 691 mmHg 71%
11:00 +26°C° 0 mm 2 mps 691 mmHg 64%
12:00 +27°C° 0 mm 2 mps 690 mmHg 57%
13:00 +29°C° 0 mm 2 mps 690 mmHg 50%
14:00 +29°C° 0 mm 2 mps 690 mmHg 51%
15:00 +29°C° 0 mm 2 mps 689 mmHg 51%
16:00 +29°C° 0 mm 2 mps 689 mmHg 51%
17:00 +27°C° 0 mm 2 mps 689 mmHg 57%
18:00 +26°C° 0 mm 2 mps 689 mmHg 62%
19:00 +24°C° 0 mm 1 mps 689 mmHg 67%
20:00 +24°C° 0 mm 1 mps 690 mmHg 70%
21:00 +23°C° 0 mm 1 mps 690 mmHg 73%
22:00 +22°C° 0 mm 1 mps 691 mmHg 75%
23:00 +22°C° 0 mm 1 mps 690 mmHg 80%

28 September, Monday

Time Temperature Precipitation Wind Pressure Humidity
00:00 +21°C° 0 mm 1 mps 690 mmHg 85%
01:00 +21°C° 0 mm 1 mps 690 mmHg 90%
02:00 +21°C° 0 mm 1 mps 690 mmHg 90%
03:00 +21°C° 0 mm 1 mps 690 mmHg 90%
04:00 +21°C° 0 mm 1 mps 690 mmHg 90%
05:00 +21°C° 0 mm 1 mps 690 mmHg 89%
06:00 +21°C° 0 mm 1 mps 691 mmHg 89%
07:00 +21°C° 0 mm 1 mps 691 mmHg 88%
08:00 +23°C° 0 mm 1 mps 692 mmHg 78%
09:00 +25°C° 0 mm 1 mps 692 mmHg 68%
10:00 +27°C° 0 mm 2 mps 693 mmHg 59%
11:00 +29°C° 0 mm 2 mps 692 mmHg 53%
12:00 +31°C° 0 mm 2 mps 691 mmHg 47%
13:00 +32°C° 0 mm 2 mps 691 mmHg 41%
14:00 +32°C° 0 mm 2 mps 690 mmHg 42%
15:00 +32°C° 0 mm 2 mps 690 mmHg 42%
16:00 +32°C° 0 mm 2 mps 689 mmHg 42%
17:00 +30°C° 0 mm 2 mps 689 mmHg 48%
18:00 +28°C° 0 mm 2 mps 690 mmHg 53%
19:00 +26°C° 0 mm 1 mps 690 mmHg 58%
20:00 +25°C° 0 mm 1 mps 691 mmHg 63%
21:00 +25°C° 0 mm 1 mps 691 mmHg 67%
22:00 +24°C° 0 mm 1 mps 692 mmHg 72%
23:00 +23°C° 0 mm 1 mps 691 mmHg 77%

29 September, Tuesday

Time Temperature Precipitation Wind Pressure Humidity
00:00 +22°C° 0 mm 1 mps 691 mmHg 82%
01:00 +21°C° 0 mm 2 mps 691 mmHg 87%
02:00 +21°C° 0 mm 2 mps 691 mmHg 87%
03:00 +21°C° 0 mm 2 mps 691 mmHg 87%
04:00 +21°C° 0 mm 2 mps 691 mmHg 86%
05:00 +21°C° 0 mm 2 mps 691 mmHg 85%
06:00 +21°C° 0 mm 1 mps 691 mmHg 85%
07:00 +21°C° 0 mm 1 mps 692 mmHg 84%
08:00 +24°C° 0 mm 1 mps 692 mmHg 74%
09:00 +26°C° 0 mm 1 mps 693 mmHg 65%
10:00 +29°C° 0 mm 1 mps 694 mmHg 55%
11:00 +31°C° 0.1 mm 1 mps 693 mmHg 50%
12:00 +31°C° 0.1 mm 0 mps 692 mmHg 45%
13:00 +33°C° 0.1 mm 0 mps 692 mmHg 40%
14:00 +34°C° 0.3 mm 1 mps 691 mmHg 41%
15:00 +33°C° 0.3 mm 1 mps 690 mmHg 43%
16:00 +32°C° 0.3 mm 2 mps 689 mmHg 45%
17:00 +30°C° 0 mm 1 mps 689 mmHg 49%
18:00 +29°C° 0 mm 1 mps 690 mmHg 54%
19:00 +27°C° 0 mm 1 mps 690 mmHg 58%
20:00 +26°C° 0 mm 1 mps 690 mmHg 64%
21:00 +25°C° 0 mm 1 mps 691 mmHg 70%
22:00 +24°C° 0 mm 1 mps 691 mmHg 76%
23:00 +23°C° 0 mm 1 mps 691 mmHg 80%

30 September, Wednesday

Time Temperature Precipitation Wind Pressure Humidity
00:00 +23°C° 0 mm 2 mps 691 mmHg 83%
01:00 +21°C° 0 mm 2 mps 691 mmHg 87%
02:00 +21°C° 0.1 mm 2 mps 690 mmHg 87%
03:00 +22°C° 0.1 mm 1 mps 690 mmHg 86%
04:00 +22°C° 0.1 mm 1 mps 690 mmHg 86%
05:00 +22°C° 0.1 mm 1 mps 691 mmHg 85%
06:00 +22°C° 0.1 mm 1 mps 691 mmHg 84%
07:00 +22°C° 0.1 mm 1 mps 692 mmHg 83%
08:00 +23°C° 0 mm 1 mps 692 mmHg 77%
09:00 +25°C° 0 mm 1 mps 692 mmHg 71%
10:00 +26°C° 0 mm 1 mps 692 mmHg 65%
11:00 +28°C° 0 mm 2 mps 692 mmHg 59%
12:00 +29°C° 0 mm 2 mps 691 mmHg 53%
13:00 +31°C° 0 mm 2 mps 690 mmHg 47%
14:00 +31°C° 0 mm 2 mps 690 mmHg 46%
15:00 +31°C° 0 mm 2 mps 689 mmHg 46%
16:00 +31°C° 0 mm 2 mps 689 mmHg 45%
17:00 +29°C° 0 mm 2 mps 689 mmHg 50%
18:00 +28°C° 0 mm 2 mps 689 mmHg 55%
19:00 +26°C° 0 mm 2 mps 689 mmHg 60%
20:00 +25°C° 0 mm 1 mps 690 mmHg 64%
21:00 +24°C° 0 mm 1 mps 690 mmHg 67%
22:00 +24°C° 0 mm 1 mps 690 mmHg 71%
23:00 +23°C° 0 mm 1 mps 690 mmHg 75%
Show more